STARLINK-33860 (64033 NORAD) Tracking and Keplerian Element Data

This shows tracking and keplerian element data for the satellite.

Feedback or suggestion? Click here.




ElementValue
Catalog64033
NameSTARLINK-33860
Epoch Orbit3405
Epoch Day354.17988758
Epoch Year2025
RAAN314.8753
Inclination70.0011
Eccentricity0.0002948
Argument of Perigee266.2115
Mean Anonmoly93.8707
Mean Motion14.98331826
Decay Rate5.259E-05
L11 64033U 25102M 25354.17988758 .00005259 00000+0 44819-3 0 9997
L22 64033 70.0011 314.8753 0002948 266.2115 93.8707 14.98331826 34055



Live tracking and technical data element details for STARLINK-33860 (NORAD 64033). STARLINK-33860 can be tracked NOW for your location showing map with azimuth and elevation plus other details from your city location.







IsCatalogInMostPopularTable: catalog: 64033, numindb: 1
Update: records affected: 1



GetName: 64033 STARLINK-33860

Hit Count: updated at: Tue, 17 Feb 2026 12:52:08 GMT